GALAXY 18 (G-18)        
1 32951U 08024A   19258.66171462  .00000016  00000-0  00000-0 0  9999
2 32951   0.0118 136.8918 0003282  42.5805 290.0708  1.00272847 21164
BLOCK DM-SL R/B         
1 32952U 08024B   19258.79091312 -.00000078  00000-0  00000-0 0  9998
2 32952   0.6674 306.2928 6535661 306.0021  30.5385  2.14620862 88719